Regional Weather Roundup
Issued by NWS

Home | Current Version | Previous Version | Graphics & Text | Print | Product List | Glossary On
Versions: 1 2 3 4 5 6 7 8 9 10 11 12 13 14 15 16 17 18 19 20 21 22 23 24 25 26 27 28 29 30 31 32 33 34 35 36 37 38 39 40 41 42 43 44 45 46 47 48 49 50
153
ASUS45 KBOU 271207
RWRCO

WEATHER ROUNDUP FOR COLORADO
NATIONAL WEATHER SERVICE DENVER/BOULDER CO
600 AM MDT SAT MAY 27 2017

NOTE: "FAIR" INDICATES FEW OR NO CLOUDS BELOW 12000 FEET WITH NO
SIGNIFICANT WEATHER AND/OR OBSTRUCTIONS TO VISIBILITY.

COZ001>005-013-030-031-271300-
...NORTHWEST COLORADO...

CITY           SKY/WX    TMP DP  RH WIND       PRES   REMARKS
CRAIG          LGT RAIN  43  39  86 NE6       30.12R
HAYDEN         CLOUDY    39  34  81 E6        30.13S
MEEKER         CLOUDY    44  41  89 CALM      30.11S
RABBIT EARS PA NOT AVBL
STEAMBOAT SPGS NOT AVBL
WALDEN         NOT AVBL
$$

COZ006>008-011-271300-
...WEST CENTRAL VALLEYS...

CITY           SKY/WX    TMP DP  RH WIND       PRES   REMARKS
GRAND JUNCTION FAIR      52  33  48 N9        30.04S
MONTROSE       FAIR      48  32  53 SE6       30.10R
EAGLE          LGT RAIN  45  39  79 CALM      30.12R
RIFLE          CLOUDY    52  39  61 VRB3      30.09R
DELTA          FAIR      58  34  40 SE8       30.03R
NUCLA          FAIR      48  27  43 E5        30.10S
$$

COZ017>023-064>068-271300-
...SOUTHWEST COLORADO...

CITY           SKY/WX    TMP DP  RH WIND       PRES   REMARKS
DURANGO        FAIR      36  21  54 NE6       30.08R
CORTEZ         FAIR      44  29  55 NE5       30.07R
PAGOSA SPRINGS FAIR      37  15  40 CALM      30.13S
TELLURIDE      FAIR      42  23  47 SE9       30.20S
WOLF CREEK PAS NOT AVBL
$$

COZ009-010-012-014-032>034-037-058>063-271300-
...CENTRAL COLORADO...

CITY           SKY/WX    TMP DP  RH WIND       PRES   REMARKS
ASPEN          CLOUDY    44  36  73 CALM      30.12R
BUENA VISTA    FAIR      38  23  56 CALM      30.07R
COPPER MTN     NOT AVBL
BERTHOUD PASS  NOT AVBL
COTTONWOOD PAS NOT AVBL
GUNNISON       FAIR      32  25  75 N5        30.13R WCI  27
KREMMLING      NOT AVBL
LEADVILLE      FAIR      34  24  67 N13       30.15R WCI  25
SALIDA         NOT AVBL
SUNLIGHT       NOT AVBL
WILKERSON PASS NOT AVBL
$$

COZ069>075-271300-
...SAN LUIS VALLEY/SANGRE DE CRISTO MOUNTAINS...

CITY           SKY/WX    TMP DP  RH WIND       PRES   REMARKS
ALAMOSA        FAIR      37  22  54 S7        30.09R
DEL NORTE      NOT AVBL
LA VETA PASS   NOT AVBL
SAGUACHE       NOT AVBL
$$

COZ035-036-038>040-271300-
...NORTHERN COLORADO FRONT RANGE...

CITY           SKY/WX    TMP DP  RH WIND       PRES   REMARKS
DENVER INTL AP FAIR      48  43  82 W3        30.05R
DMNS CITY PARK   N/A     47  45  93 E3G12     30.05R
AURORA         PTCLDY    46  44  94 CALM      30.06R
FRONT RANGE AP NOT AVBL
ERIE MUNI ARPT NOT AVBL
BOULDER MUN AP NOT AVBL
CENTENNIAL     FAIR      46  43  89 CALM      30.05R
BROOMFIELD     MOCLDY    48  41  76 VRB3      30.06
FORT COLLINS   LGT RAIN  49  46  90 NE3       30.05R
LONGMONT       NOT AVBL
$$

COZ041-046-047-076>085-087-088-271300-
...PIKES PEAK/PALMER DIVIDE AND SOUTHERN FOOTHILLS...

CITY           SKY/WX    TMP DP  RH WIND       PRES   REMARKS
COLO. SPRINGS  FAIR      48  41  76 NW10      30.06R
A. F. ACADEMY  FAIR      42  40  91 N9        30.05S
SCHRIEVER AFB  FAIR      46  40  78 NW9       30.05R
CHEYENNE MTN   FAIR      46  38  75 NW8       30.03R
ELLICOTT       FAIR     N/A N/A N/A N5        30.03R
FALCON         FAIR      44  38  79 N9        30.07R
FORT CARSON    FAIR      47  40  77 NW9       30.04R
LIMON          CLOUDY    48  46  93 N12       30.03R
MONUMENT HILL  NOT AVBL
CANON CITY     NOT AVBL
WALSENBURG     PTSUNNY   43  41  93 W6        30.08R
TRINIDAD       CLOUDY    51  42  71 NW9       30.06R
$$

COZ042>045-048>051-090-091-271300-
...NORTHEAST COLORADO...

CITY           SKY/WX    TMP DP  RH WIND       PRES   REMARKS
GREELEY ARPT   CLOUDY    50  46  86 CALM      30.05R
AKRON          CLOUDY    50  47  89 N10       30.00R
BURLINGTON     MOCLDY    53  51  93 NW13      29.97R
WRAY           FAIR      52  52 100 N15       29.96S
YUMA           NOT AVBL
STERLING       NOT AVBL
HOLYOKE        NOT AVBL
FORT MORGAN    FAIR      44  42  95 NW9       30.03R
$$

COZ086-089-092>099-271300-
...SOUTHEAST COLORADO...

CITY           SKY/WX    TMP DP  RH WIND       PRES   REMARKS
PUEBLO         CLOUDY    53  44  71 N7        30.01R
LA JUNTA       CLOUDY    57  48  72 N16       29.97R
LAMAR          CLOUDY    57  49  74 MISG      29.92R
SPRINGFIELD      N/A     49  47  93 NW21G32   29.93R
$$




USA.gov is the U.S. government's official web portal to all federal, state and local government web resources and services.